This is the latest recevied weather packets stored in our database for station/object KCCA. If no packets are shown the sender has not sent any weather packets the latest 10 day(s).
| Time | Temp. | Humidity | Pressure | Rain* | Wind** | Luminosity | Snow |
|---|---|---|---|---|---|---|---|
| 1777982607 | 15.56° C | 100% | 1007.8 hPa | 1.78 mm | - | - | - |
| 1777982003 | 15.56° C | 100% | 1007.5 hPa | - | - | - | - |
| 1777981409 | 15.56° C | 100% | 1007.5 hPa | - | - | - | - |
| 1777980807 | 15.56° C | 100% | 1007.5 hPa | - | - | - | - |
| 1777980208 | 15.56° C | 100% | 1007.5 hPa | - | - | - | - |
| 1777979609 | 15.56° C | 93% | 1007.5 hPa | - | - | - | - |
| 1777979007 | 15.56° C | 93% | 1007.5 hPa | - | - | - | - |
| 1777978410 | 15.56° C | 93% | 1007.5 hPa | - | - | - | - |
| 1777977807 | 15.56° C | 93% | 1007.5 hPa | - | - | - | - |
| 1777977207 | 16.67° C | 88% | 1006.4 hPa | - | - | - | - |
| 1777976605 | 16.67° C | 88% | 1006.4 hPa | - | - | - | - |
| 1777976007 | 15.56° C | 93% | 1005.4 hPa | - | - | - | - |
| 1777975406 | 16.67° C | 82% | 1006.8 hPa | - | - | - | - |
| 1777974806 | 16.67° C | 82% | 1006.8 hPa | - | - | - | - |
| 1777974207 | 16.67° C | 82% | 1006.8 hPa | - | - | - | - |
| 1777973607 | 15.56° C | 87% | 1006.4 hPa | - | - | - | - |
| 1777973009 | 15.56° C | 87% | 1006.4 hPa | - | - | - | - |
| 1777972407 | 15.56° C | 87% | 1006.4 hPa | - | - | - | - |
| 1777971809 | 15.56° C | 87% | 1006.4 hPa | - | - | - | - |
| 1777971212 | 15.56° C | 87% | 1006.1 hPa | - | - | - | - |
| 1777970604 | 15.56° C | 87% | 1006.1 hPa | - | - | - | - |
| 1777970010 | 15° C | 93% | 1006.4 hPa | - | - | - | - |
| 1777969409 | 15° C | 93% | 1006.4 hPa | - | - | - | - |
| 1777968807 | 15° C | 93% | 1006.8 hPa | - | - | - | - |
| 1777968209 | 15° C | 93% | 1006.8 hPa | - | - | - | - |
* Rain latest hour (hover to see other rain measurements)
** Current wind speed in m/s (hover to see current wind gust speed)